Location: Balomir
(45.5833°N, 23.0000°E)
Time: 04:06:56
(UTC+00:00)

Daily predictions for brighter satellites

Satellite Brightness Start Highest point End
(mag) Time Altitude Azimuth Time Altitude Azimuth Time Altitude Azimuth
CZ-2D R/B 4.3 00:07:10 10° NNE 00:09:03 22° NNE 00:09:03 22° NNE
Resurs 1-4 Rocket 4.2 00:18:57 10° NNE 00:20:45 22° NNE 00:20:45 22° NNE
ATLAS 5 CENTAUR R/B 4.2 00:59:08 14° N 00:59:08 14° N 01:00:01 10° NNE
IDEFIX/ARIANE 42P 4.0 00:52:16 10° NNE 00:55:03 32° N 00:55:03 32° N
Cosmos 1821 Rocket 4.3 01:00:56 61° NE 01:00:56 61° NE 01:06:10 10° NNE
CZ-2C R/B 4.4 01:01:14 10° NE 01:05:08 22° E 01:06:28 20° ESE
SL-16 R/B 4.3 01:09:58 19° NNW 01:09:58 19° NNW 01:11:45 10° NNW
MSX 4.4 01:02:38 10° NNE 01:06:54 52° N 01:06:54 52° N
ADEOS II 3.4 01:14:23 10° N 01:17:15 31° NNW 01:17:15 31° NNW
Cosmos 1934 Rocket 4.4 01:24:02 45° SSE 01:25:48 61° E 01:32:03 10° NNE
IRS-1D 3.8 01:25:25 10° NNE 01:30:04 68° NNE 01:30:04 68° NNE
CBERS-1 4.5 01:27:38 10° NNE 01:32:41 55° E 01:33:07 53° ESE
BREEZE-M R/B 3.8 01:33:31 81° SSW 01:33:50 85° SSE 01:44:13 10° ENE
Cosmos 1932 4.3 01:40:48 73° W 01:41:09 76° NW 01:47:37 10° NNE
CZ-2C R/B 4.3 01:37:14 10° SE 01:41:48 32° ENE 01:46:28 10° N
CZ-2D R/B 4.1 01:48:27 10° NNW 01:50:21 16° NW 01:50:21 16° NW
PAYLOAD A 4.4 01:48:13 10° NNE 01:52:55 57° E 01:54:28 39° SSE
Cosmos 407 Rocket 4.2 01:48:45 10° NNW 01:53:58 54° ENE 01:59:11 10° SE
Atlas Centaur 2 4.2 01:53:42 21° S 01:54:40 22° S 02:00:00 10° SE
Cosmos 1980 Rocket 4.5 01:55:14 10° N 01:59:39 23° NE 02:04:05 10° E
Meteor 1-14 Rocket 4.4 01:54:12 10° N 02:00:11 79° ENE 02:06:01 10° SSE
Cosmos 1656 3.7 01:55:23 10° NNW 02:01:07 81° ENE 02:06:49 10° SSE
Resurs 1-4 Rocket 4.2 02:00:39 10° NNW 02:01:49 13° NW 02:01:49 13° NW
Tiangong 0.5 02:05:56 15° SE 02:05:56 15° SE 02:06:37 10° ESE
BREEZE-M DEB (TANK) 3.4 02:06:05 31° ENE 02:06:05 31° ENE 02:07:51 10° ENE
ALOS 2.1 02:00:34 10° NNE 02:05:15 84° WNW 02:05:41 73° SW
X-37B 2.8 02:12:02 19° ESE 02:12:02 19° ESE 02:13:19 10° E
Meteor 1-5 Rocket 4.0 02:07:36 10° NNW 02:13:00 67° W 02:15:44 29° S
ARIANE 5 R/B 3.0 02:10:59 10° NNE 02:15:58 58° E 02:20:32 12° S
USA 307 4.2 02:15:27 27° SSE 02:16:32 31° SE 02:20:14 10° ENE
Cosmos 1805 Rocket 3.7 02:13:34 10° NNW 02:17:17 53° WNW 02:17:17 53° WNW
Helios 1B rocket 2.4 02:14:16 10° NNE 02:18:21 80° ESE 02:19:28 47° S
SL-08 R/B 4.2 02:18:11 10° SE 02:22:40 50° ENE 02:27:14 10° N
Cosmos 1023 Rocket 4.3 02:21:21 10° NNW 02:26:32 72° WSW 02:31:43 10° SSE
Cosmos 1633 Rocket 3.7 02:23:06 10° N 02:27:23 56° ENE 02:31:38 10° SSE
USA 306 3.5 02:29:43 34° S 02:31:03 48° SE 02:35:01 10° ENE
Cosmos 2360 4.5 02:27:37 10° NNW 02:33:21 71° ENE 02:39:01 10° SE
Cosmos 1484 Rocket 3.3 02:29:46 10° NNE 02:33:42 60° E 02:37:38 10° S
Cosmos 2098 Rocket 2.8 02:31:20 10° N 02:34:10 52° E 02:37:03 10° SSE
USA 234 3.7 02:29:36 10° ENE 02:36:02 56° SE 02:41:22 15° SSW
Cosmos 1666 Rocket 3.5 02:32:37 10° N 02:37:07 87° E 02:41:35 10° S
CZ-2C R/B 4.4 02:33:29 10° NNE 02:39:03 45° E 02:44:26 10° S
Cosmos 1833 Rocket 2.7 02:38:02 17° SSW 02:42:31 85° ESE 02:48:12 10° NNE
CZ-2C R/B 2.7 02:38:44 10° N 02:43:36 48° WNW 02:45:49 28° SW
Cosmos 1328 Rocket 3.8 02:39:35 10° S 02:43:55 71° E 02:48:18 10° NNE
Meteor 1-4 Rocket 3.5 02:41:23 10° N 02:44:53 49° ENE 02:48:26 10° SSE
Cosmos 2251 Rocket 4.0 02:41:07 10° NW 02:45:54 36° WSW 02:50:38 10° SSW
Cosmos 1371 Rocket 4.0 02:43:22 10° SSW 02:48:38 83° ESE 02:53:55 10° NNE
Cosmos 1447 Rocket 4.4 02:42:28 10° NNW 02:48:46 70° W 02:54:59 10° S
Envisat 3.3 02:43:45 10° NNE 02:48:50 67° ESE 02:53:52 10° S
Aureole 3 3.6 02:47:46 33° SW 02:49:01 44° W 02:52:28 10° N
IRS-1C 4.1 02:45:26 10° N 02:50:43 62° WNW 02:55:30 13° SSW
USA 308 3.2 02:48:54 24° SSW 02:51:09 57° SE 02:55:13 10° ENE
COSMOS 2406 3.9 02:45:47 10° S 02:51:16 54° ESE 02:56:48 10° NE
Cosmos 1515 3.5 02:49:12 14° SSW 02:52:23 80° W 02:56:08 10° N
Cosmos 2082 Rocket 3.4 02:47:34 10° S 02:52:48 42° ESE 02:58:03 10° NE
Cosmos 1536 2.8 02:52:12 10° N 02:56:17 84° E 03:00:19 10° S
Meteor 2-6 Rocket 4.4 02:53:00 18° SW 02:56:46 47° WNW 03:02:04 10° N
ERBS 2.0 02:56:41 44° W 02:57:16 56° NW 03:00:08 10° NE
Orbus 7S? 3.1 02:56:26 30° SW 02:57:52 90° E 03:03:06 10° NE
Cosmos 1515 Rocket 4.3 02:57:34 10° S 03:01:53 57° E 03:06:15 10° NNE
Cosmos 1151 Rocket 3.3 02:59:57 19° SW 03:02:35 42° WNW 03:06:40 10° N
Cosmos 1140 Rocket 4.0 02:58:33 10° NW 03:03:15 36° WSW 03:07:58 10° SSW
Sich 1 4.1 03:00:25 10° NW 03:03:50 23° W 03:04:07 23° W
YAOGAN 6 2.5 03:01:45 10° N 03:05:24 68° WNW 03:08:59 10° SSW
Cosmos 1697 Rocket 2.6 03:00:03 10° NNW 03:05:40 68° WSW 03:11:17 10° SSE
Cosmos 1470 Rocket 3.5 03:03:44 10° N 03:08:04 90° NNW 03:12:25 10° S
Cosmos 1346 Rocket 3.0 03:12:06 10° SSW 03:15:58 48° WNW 03:19:50 10° N
ATLAS CENTAUR R/B 2.0 03:12:29 10° SSW 03:17:17 72° ESE 03:22:09 10° NE
Cosmos 1356 4.1 03:16:28 19° WSW 03:18:05 29° WNW 03:20:59 10° N
Cosmos 2056 Rocket 3.5 03:14:09 10° SW 03:19:13 59° WNW 03:24:17 10° NNE
Meteor 1-27 Rocket 3.7 03:14:26 10° SSW 03:20:09 73° WNW 03:26:02 10° N
Cosmos 1802 Rocket 4.2 03:14:00 10° S 03:20:24 79° E 03:26:46 10° N
USA 305 2.8 03:18:17 17° WSW 03:21:25 73° NNW 03:25:34 10° NE
CZ-2C R/B 3.1 03:17:16 10° SSW 03:22:01 36° W 03:26:52 10° NNW
Cosmos 1743 2.9 03:18:31 10° NNW 03:22:08 45° W 03:25:45 10° SSW
Cosmos 1190 Rocket 4.3 03:17:55 10° NW 03:22:47 41° WSW 03:27:39 10° S
Cosmos 1954 Rocket 4.0 03:19:18 10° NNW 03:24:26 60° WSW 03:29:36 10° S
CZ-2C R/B 2.8 03:21:02 10° NNE 03:24:47 83° E 03:28:35 10° SSW
CENTAUR R/B 3.7 03:19:31 10° S 03:24:50 43° ESE 03:31:10 10° NE
Cosmos 1459 Rocket 4.0 03:19:10 10° SSW 03:25:30 78° W 03:31:55 10° N
Cosmos 1441 Rocket 3.3 03:23:56 10° SSW 03:27:31 47° WNW 03:31:08 10° N
Cosmos 1420 Rocket 4.1 03:26:24 10° SW 03:31:32 55° WNW 03:36:41 10° NNE
Spot 4 Rocket 4.1 03:27:09 10° N 03:32:13 61° WNW 03:37:15 10° SSW
COSMO-SKYMED 1 2.8 03:30:07 10° SSE 03:34:27 77° ENE 03:38:49 10° N
NOSS 3-2 (A) 4.2 03:30:50 10° SSW 03:35:59 50° ESE 03:41:56 10° NE
Cosmos 1725 Rocket 4.2 03:29:59 10° S 03:36:17 80° E 03:42:37 10° N
CZ-2D R/B 4.5 03:36:10 10° NNW 03:39:25 25° WNW 03:42:39 10° WSW
CZ-4C R/B 3.7 03:35:43 10° S 03:39:37 45° W 03:43:43 10° NNW
Tiangong -0.1 03:38:04 10° WSW 03:39:58 15° SSW 03:41:55 10° SSE
Cosmos 1378 3.1 03:36:59 10° S 03:40:36 87° E 03:44:15 10° N
Meteor 1-29 3.8 03:38:29 10° N 03:41:22 29° WNW 03:44:15 10° SW
Cosmos 1741 Rocket 4.5 03:36:09 10° NNW 03:41:23 67° ENE 03:46:33 10° SSE
SJ-12 4.0 03:37:32 10° NNE 03:41:37 87° E 03:45:42 10° SSW
ALOS 4.2 03:40:18 10° NW 03:41:51 12° WNW 03:43:25 10° WNW
Meteor 2-9 Rocket 4.2 03:36:37 10° NNW 03:42:26 79° W 03:48:04 10° S
Atlas Centaur 2 4.2 03:37:23 10° SW 03:43:00 22° S 03:47:56 10° SE
Cosmos 2369 3.7 03:37:42 10° NNW 03:43:19 63° WSW 03:48:53 10° S
Cosmos 1980 Rocket 2.2 03:38:37 10° NNW 03:44:10 67° WSW 03:49:42 10° SSE
Okean 1 3.3 03:40:10 10° SSW 03:44:12 69° W 03:48:14 10° N
BREEZE-M DEB (TANK) 2.8 03:41:20 10° WNW 03:44:13 65° SSW 03:52:26 10° SE
Lacrosse 4 Rocket 3.7 03:41:46 10° N 03:45:29 27° NE 03:49:15 10° ESE
X-37B 0.4 03:43:15 10° WSW 03:46:06 73° S 03:48:59 10° E
H-2A R/B 4.3 03:41:57 10° NNE 03:46:48 32° E 03:51:36 10° SSE
Cosmos 1869 Rocket 3.9 03:45:27 10° N 03:49:55 73° E 03:54:20 10° SSE
Cosmos 2278 3.9 03:46:25 10° NNW 03:52:07 81° ENE 03:57:46 10° SSE
Cosmos 2173 Rocket 4.2 03:46:37 10° SSW 03:52:29 47° WNW 03:58:23 10° N
H-2A R/B 3.3 03:49:29 10° N 03:52:48 34° WNW 03:56:07 10° SW
Helios 1B rocket 4.4 03:51:36 10° NW 03:52:52 11° WNW 03:54:07 10° WNW
ARIANE 5 R/B 3.8 03:50:57 10° NNW 03:54:38 21° WNW 03:58:17 10° WSW
USA 307 3.1 03:51:43 10° WSW 03:55:47 54° NNW 03:59:53 10° NE
SL-16 R/B 3.4 03:52:00 10° NNW 03:57:28 46° ENE 04:02:54 10° SE
